Regional Weather Roundup
Issued by NWS

Home | Current Version | Previous Version | Graphics & Text | Print | Product List | Glossary On
Versions: 1 2 3 4 5 6 7 8 9 10 11 12 13 14 15 16 17 18 19 20 21 22 23 24 25 26 27 28 29 30 31 32 33 34 35 36 37 38 39 40 41 42 43 44 45 46 47 48 49 50
000
ASUS43 KMKX 261000
RWRWI

WISCONSIN REGIONAL WEATHER ROUNDUP
NATIONAL WEATHER SERVICE MILWAUKEE/SULLIVAN WI
500 AM CDT SUN APR 26 2015

NOTE: "FAIR" INDICATES FEW OR NO CLOUDS BELOW 12,000 FEET WITH NO
SIGNIFICANT WEATHER AND/OR OBSTRUCTIONS TO VISIBILITY.

WIZ001-002-006>008-014>016-023>028-261100-
NORTHWEST WISCONSIN

CITY           SKY/WX    TMP DP  RH WIND       PRES   REMARKS
SUPERIOR ARPT  CLEAR     24  22  93 CALM      30.10F
ASHLAND        CLEAR     23  21  92 SW5       30.11R WCI  17
HAYWARD        CLEAR     26  21  81 NE6       30.07R WCI  19
SIREN          CLEAR     30  23  74 CALM      30.06F
CUMBERLAND     CLEAR     32  23  69 NE6       30.03S WCI  26
RICE LAKE      CLEAR     30  22  71 N6        30.06R WCI  24
CHETEK         CLEAR     35  23  61 NE5       30.04S WCI  31
LADYSMITH      CLEAR     32  22  66 E3        30.05S
EAU CLAIRE     NOT AVBL
MENOMONIE      CLEAR     35  23  62 CALM      30.03S
NEW RICHMOND   CLEAR     32  22  67 NE5       30.03R WCI  27
OSCEOLA        CLEAR     32  22  68 N3        30.06S
$$

WIZ003>005-009-010-017-018-261100-
NORTH CENTRAL WISCONSIN

CITY           SKY/WX    TMP DP  RH WIND       PRES   REMARKS
MANITOWISH WTR CLEAR     24  23  96 CALM      30.04S
ARBOR VITAE    CLEAR     26  20  78 CALM      30.04S
WOODRUFF       CLEAR     26  20  78 CALM      30.04S
RHINELANDER    CLEAR     28  20  71 N5        30.04S WCI  23
EAGLE RIVER    CLEAR     24  19  83 CALM      30.03S
LAND O LAKES   CLEAR     23  20  85 CALM      30.04S
PHILLIPS       CLEAR     26  20  76 NE6       30.04S WCI  20
TOMAHAWK       CLEAR     27  21  76 CALM      30.04S
MEDFORD        CLEAR     31  22  71 NE5       30.03R WCI  26
MERRILL        CLEAR     27  21  79 N5        30.03S WCI  21
$$

WIZ029-030-035-036-043>047-261100-
CENTRAL WISCONSIN

CITY           SKY/WX    TMP DP  RH WIND       PRES   REMARKS
WAUSAU         CLEAR     32  21  64 CALM      30.02R
MOSINEE        CLEAR     32  21  64 N7        30.03R WCI  26
MARSHFIELD     CLEAR     34  21  59 NE7       30.02R WCI  28
STEVENS POINT  CLEAR     29  18  65 CALM      30.03R
WAUPACA        CLEAR     32  21  64 N5        30.03S WCI  27
WAUTOMA        NOT AVBL
WISC RAPIDS    CLEAR     34  19  54 NE6       30.03R WCI  29
CAMP DOUGLAS   NOT AVBL
$$

WIZ011>013-019>022-031-037>040-048>050-261100-
NORTHEAST WISCONSIN

CITY           SKY/WX    TMP DP  RH WIND       PRES   REMARKS
ANTIGO         CLEAR     28  21  77 N7        30.02S WCI  20
SHAWANO        CLEAR     35  21  57 CALM      30.03S
OCONTO         CLEAR     31  20  65 NW3       30.02S
STURGEON BAY   CLEAR     34  25  69 NW5       30.03R WCI  30
GREEN BAY      CLEAR     32  21  64 N6        30.02R WCI  26
MANITOWOC      NOT AVBL
APPLETON       CLEAR     30  21  69 N6        30.02R WCI  24
CLINTONVILLE   CLEAR     32  19  59 N5        30.02S WCI  27
OSHKOSH        CLEAR     32  23  69 N7        30.01R WCI  26
$$

WIZ032>034-041-042-053>061-261100-
SOUTHWEST WISCONSIN

CITY           SKY/WX    TMP DP  RH WIND       PRES   REMARKS
LA CROSSE      CLEAR     33  25  72 CALM      30.01S
SPARTA         CLEAR     24  20  84 CALM      30.02S
VIROQUA        CLEAR     34  19  55 NE9       29.98S WCI  27
BOSCOBEL       CLEAR     27  22  81 CALM      30.00R
PRAIRIE DU CHI CLEAR     30  27  89 CALM      29.99S
PLATTEVILLE    CLEAR     32  23  68 N8        29.96R WCI  25
$$

WIZ056-057-062-063-064-067-068-261100-
SOUTH CENTRAL WISCONSIN

CITY           SKY/WX    TMP DP  RH WIND       PRES   REMARKS
REEDSBURG      FAIR      32  20  62 CALM      29.99S
BARABOO/DELLS  FAIR      32  22  66 NE7       29.99S WCI  26
LONE ROCK      NOT AVBL
MINERAL POINT  CLEAR     36  19  51 NE9       29.96R WCI  29
MADISON        CLEAR     33  24  69 N5        29.98R WCI  29
MIDDLETON      CLEAR     34  25  70 NE5       29.98R WCI  30
WATERTOWN      CLEAR     32  28  83 N5        29.96S WCI  28
MONROE         CLEAR     32  27  80 N12       29.94S WCI  23
JANESVILLE     CLEAR     36  25  64 N3        29.95R
$$

WIZ051-052-058>065-066-070>072-261100-
SOUTHEAST WISCONSIN

CITY           SKY/WX    TMP DP  RH WIND       PRES   REMARKS
MILWAUKEE      PTCLDY    37  31  78 N10       29.97R WCI  30
WAUKESHA       CLEAR     32  28  86 N6        29.97R WCI  26
MILWAUKEE/TIMM FAIR      34  28  80 N8        29.98R WCI  27
RACINE         CLEAR     36  32  85 N10       29.97R WCI  28
BURLINGTON     CLEAR     28  25  88 CALM      29.95R
KENOSHA        CLEAR     34  29  82 N5        29.95R WCI  30
FOND DU LAC    CLEAR     36  26  67 NE10      30.01R WCI  28
SHEBOYGAN      CLEAR     33  25  72 N7        30.00R WCI  27
WEST BEND      CLEAR     34  28  80 N5        29.98R WCI  30
JUNEAU         CLEAR     33  25  71 N8        29.99R WCI  26
$$

LSZ147-162-261100-
LAKE SUPERIOR

STATION/POSITION TIME  TEMP    WIND        PRES    WAVE
                       AIR SEA DIR/SP/G            HT/PER
                 (UTC) (F)     (DEG/KT/KT) (MB)    (FT/S)
W MID LAKE BUOY  0850   36 34  350/  6/  6 1020.2R   1
DEVILS ISLAND    0900   36      10/  5/  6 1019.9R
PORT WING        0900   26     160/  3/  4 1019.3R
SAXON HARBOR     0900   26      CALM  /  3 1018.6
$$

LMZ867-665-643>646-261100-
LAKE MICHIGAN

STATION/POSITION TIME  TEMP    WIND        PRES    WAVE
                       AIR SEA DIR/SP/G            HT/PER
                 (UTC) (F)     (DEG/KT/KT) (MB)    (FT/S)
CHAMBERS ISLAND  0900   35     340/  8/ 10 1016.3R
NORTHPORT PIER   0900   37     330/  9/ 11 1015.9R
SISTER BAY       0932   36      10/  6/  9   N/A
KEWAUNEE LAKESHO 0900   32     310/  5/  6 1015.1R
SHEBOYGAN LAKESH 0900   38      10/ 16/ 17 1016.2R
PORT WASHINGTON  0900   37     350/  6/  9 1015.6
MILWAUKEE LAKESH 0900   39      10/ 13/ 16   N/A
KENOSHA   LAKESH 0900   42      30/ 14/ 16 1013.9R
$$

TC  - TEMPERATURE IN CELSIUS
VSB - VISIBILITY IN STATUTE MILES
WCI - WIND CHILL INDEX
HX  - HEAT INDEX



USA.gov is the U.S. government's official web portal to all federal, state and local government web resources and services.